Location: Unspecified
(38.6830°S, 0.0000°E)
Time: 01:15:48
(UTC+00:00)

Envisat - Visible Passes

Search period start: 27 May 2019 00:00
Search period end: 06 June 2019 00:00
Orbit: 764 x 766 km, 98.2° (Epoch: 26 May)

Date Brightness Start Highest point End Pass type
(mag) Time Alt. Az. Time Alt. Az. Time Alt. Az.
27 May 5.5 05:19:37 10° ENE 05:23:15 20° ESE 05:26:55 10° SSE visible
27 May 4.4 19:15:01 27° N 19:15:01 27° N 19:17:17 10° N visible
28 May 3.3 06:20:01 10° NNE 06:25:06 76° ESE 06:30:16 10° S visible
28 May 4.6 18:37:50 20° NE 18:37:50 20° NE 18:39:44 10° NNE visible
28 May 5.7 20:18:02 13° NW 20:18:02 13° NW 20:18:43 10° NW visible
29 May 4.7 05:43:59 10° NE 05:48:32 34° ESE 05:53:09 10° S visible
29 May 4.8 19:40:51 24° NNW 19:40:51 24° NNW 19:42:47 10° NNW visible
30 May 5.7 05:09:07 10° E 05:12:10 16° ESE 05:15:12 10° SSE visible
30 May 4.4 19:03:40 26° NNE 19:03:40 26° NNE 19:05:56 10° N visible
31 May 3.6 06:08:54 10° NNE 06:13:54 59° ESE 06:18:59 10° S visible
31 May 4.7 18:26:28 17° NE 18:26:28 17° NE 18:28:01 10° NE visible
31 May 5.4 20:06:39 17° NW 20:06:39 17° NW 20:07:50 10° NW visible
01 Jun 5.0 05:33:09 10° NE 05:37:23 27° ESE 05:41:40 10° SSE visible
01 Jun 4.6 19:29:27 26° NNW 19:29:27 26° NNW 19:31:36 10° NNW visible
02 Jun 5.8 04:58:55 10° E 05:01:05 13° ESE 05:03:15 10° SE visible
02 Jun 3.0 06:34:17 10° N 06:39:23 78° WNW 06:44:34 10° SSW visible
02 Jun 4.4 18:52:16 24° NNE 18:52:16 24° NNE 18:54:29 10° NNE visible
03 Jun 4.1 05:57:51 10° NE 06:02:43 47° ESE 06:07:39 10° S visible
03 Jun 4.9 18:15:03 14° NE 18:15:03 14° NE 18:16:07 10° NE visible
03 Jun 5.1 19:55:16 20° NW 19:55:16 20° NW 19:56:51 10° NW visible
04 Jun 5.3 05:22:26 10° ENE 05:26:16 22° ESE 05:30:08 10° SSE visible
04 Jun 4.4 19:18:03 27° N 19:18:03 27° N 19:20:22 10° N visible
05 Jun 3.1 06:23:03 10° NNE 06:28:09 83° ESE 06:33:20 10° S visible
05 Jun 4.5 18:40:50 21° NE 18:40:50 21° NE 18:42:56 10° NNE visible
05 Jun 5.7 20:21:03 13° WNW 20:21:03 13° WNW 20:21:36 10° NW visible
